Date String (YYYY-MM-DD hh:mm:ss) UTC,Instrument flags,absolute air pressure of the measurement (hPa),sample flow rate (lpm),inlet stack bypass flow (lpm),air temperature of the measurement (°C),ambient temperature measured by the external sensor (°C),aerosol sample conditioner tube jacket temperature (°C),OPC LED temperature (°C),internal box temperature (°C),relative humidity of the measurement (%),span deviation,mass concentration of particles derived from Lorenz-Mie calculation of OPC scattering (μg/m³),mass concentration of particles derived from Lorenz-Mie calculation of OPC scattering (μg/m³),mass concentration of particles derived from Lorenz-Mie calculation of OPC scattering (μg/m³)
DateTimeUTC,F1_M11,P_M11,Q1_M11,Q2_M11,T1_M11,T2_M11,T3_M11,T4_M11,T5_M11,U1_M11,ZSPAN_M11,X0_M11,X2_M11,X1_M11
2024-02-02 23:00:00,SystemResetWarning,0814.0,5.00,000.00,025.5,024.9,000.0,033.8,027.4,11.7,0003.8,0024.19,0007.93,0006.83
2024-02-02 23:01:00,SystemResetWarning,0813.9,5.00,000.00,025.5,024.9,000.0,033.8,027.4,11.8,0004.0,0023.80,0007.95,0006.82
2024-02-02 23:02:00,SystemResetWarning,0813.9,5.00,000.00,025.5,024.9,000.0,033.8,027.3,11.8,0004.0,0023.32,0007.97,0006.85
2024-02-02 23:03:00,SystemResetWarning,0813.9,5.01,000.00,025.5,024.9,000.0,033.8,027.4,11.9,0003.7,0023.59,0008.01,0006.89
2024-02-02 23:04:00,SystemResetWarning,0813.9,5.01,000.00,025.6,024.9,000.0,033.9,027.4,12.0,0003.7,0023.45,0007.96,0006.91
2024-02-02 23:05:00,SystemResetWarning,0813.9,4.99,000.00,025.6,024.9,000.0,033.9,027.4,11.9,0003.7,0023.47,0007.99,0006.94
2024-02-02 23:06:00,SystemResetWarning,0813.9,5.00,000.00,025.6,024.9,000.0,033.9,027.4,11.9,0003.2,0021.50,0008.02,0006.95
2024-02-02 23:07:00,SystemResetWarning,0813.9,5.00,000.00,025.6,024.9,000.0,033.9,027.4,11.9,0003.6,0021.80,0008.02,0006.94
2024-02-02 23:08:00,SystemResetWarning,0814.0,5.00,000.00,025.6,024.9,000.0,033.9,027.4,11.9,0003.5,0021.79,0008.07,0006.96
2024-02-02 23:09:00,SystemResetWarning,0813.9,5.00,000.00,025.6,024.9,000.0,033.9,027.4,11.9,0003.4,0020.89,0008.11,0006.99
2024-02-02 23:10:00,SystemResetWarning,0814.0,5.00,000.00,025.6,024.9,000.0,033.9,027.4,12.0,0003.4,0019.88,0008.23,0007.03
2024-02-02 23:11:00,SystemResetWarning,0813.9,4.99,000.00,025.6,024.9,000.0,033.9,027.4,11.9,0003.3,0019.69,0008.37,0007.06
2024-02-02 23:12:00,SystemResetWarning,0813.9,5.00,000.00,025.6,025.0,000.0,033.9,027.4,11.9,0003.3,0020.99,0008.39,0007.08
2024-02-02 23:13:00,SystemResetWarning,0813.9,5.00,000.00,025.6,025.0,000.0,033.9,027.4,11.8,0003.3,0021.78,0008.40,0007.07
2024-02-02 23:14:00,SystemResetWarning,0813.9,5.00,000.00,025.6,025.0,000.0,033.9,027.4,11.9,0003.1,0022.14,0008.36,0007.07
2024-02-02 23:15:00,SystemResetWarning,0814.0,5.00,000.00,025.6,025.0,000.0,033.9,027.4,11.9,0002.9,0023.60,0008.38,0007.06
2024-02-02 23:16:00,SystemResetWarning,0814.0,5.00,000.00,025.6,025.0,000.0,033.9,027.4,11.9,0003.0,0023.78,0008.40,0007.06
2024-02-02 23:17:00,SystemResetWarning,0814.0,5.00,000.00,025.6,025.0,000.0,034.0,027.5,11.9,0003.2,0024.90,0008.45,0007.07
2024-02-02 23:18:00,SystemResetWarning,0813.9,5.00,000.00,025.6,025.0,000.0,034.0,027.5,12.0,0003.2,0024.75,0008.48,0007.08
2024-02-02 23:19:00,SystemResetWarning,0814.0,5.00,000.00,025.6,025.0,000.0,034.0,027.5,12.0,0003.2,0024.85,0008.52,0007.09
2024-02-02 23:20:00,SystemResetWarning,0813.9,5.00,000.00,025.7,025.0,000.0,034.0,027.4,11.9,0003.0,0025.08,0008.59,0007.11
2024-02-02 23:21:00,SystemResetWarning,0813.9,5.00,000.00,025.7,025.0,000.0,034.0,027.5,12.0,0003.2,0025.73,0008.57,0007.10
2024-02-02 23:22:00,SystemResetWarning,0814.0,5.00,000.00,025.7,025.0,000.0,034.0,027.5,12.0,0003.2,0027.22,0008.51,0007.09
2024-02-02 23:23:00,SystemResetWarning,0814.0,5.01,000.00,025.7,025.0,000.0,034.0,027.5,12.0,0003.5,0025.50,0008.51,0007.08
2024-02-02 23:24:00,SystemResetWarning,0813.9,5.01,000.00,025.7,025.0,000.0,034.0,027.5,12.0,0004.1,0024.83,0008.54,0007.08
2024-02-02 23:25:00,SystemResetWarning,0813.9,5.00,000.00,025.7,025.0,000.0,034.0,027.5,12.0,0004.4,0025.00,0008.58,0007.08
2024-02-02 23:26:00,SystemResetWarning,0813.9,5.01,000.00,025.7,025.0,000.0,034.0,027.5,12.0,0004.6,0025.29,0008.66,0007.09
2024-02-02 23:27:00,SystemResetWarning,0813.8,5.00,000.00,025.7,025.0,000.0,034.0,027.5,12.0,0004.7,0025.95,0008.72,0007.10
2024-02-02 23:28:00,SystemResetWarning,0813.9,4.99,000.00,025.7,025.0,000.0,034.0,027.5,12.0,0004.7,0025.77,0008.73,0007.09
2024-02-02 23:29:00,SystemResetWarning,0813.9,4.99,000.00,025.7,025.0,000.0,034.0,027.5,12.0,0004.6,0026.17,0008.76,0007.12
2024-02-02 23:30:00,SystemResetWarning,0813.9,4.99,000.00,025.7,025.0,000.0,034.0,027.5,12.0,0004.7,0026.06,0008.74,0007.12
2024-02-02 23:31:00,SystemResetWarning,0813.9,5.01,000.00,025.7,025.0,000.0,034.0,027.5,12.0,0005.0,0027.09,0008.70,0007.11
2024-02-02 23:32:00,SystemResetWarning,0813.9,5.01,000.00,025.7,025.0,000.0,034.0,027.5,12.0,0004.9,0027.46,0008.69,0007.12
2024-02-02 23:33:00,SystemResetWarning,0813.9,5.00,000.00,025.7,025.0,000.0,034.1,027.5,12.0,0005.2,0026.48,0008.72,0007.12
2024-02-02 23:34:00,SystemResetWarning,0813.9,5.00,000.00,025.7,025.0,000.0,034.1,027.5,12.0,0005.4,0026.68,0008.76,0007.11
2024-02-02 23:35:00,SystemResetWarning,0813.9,5.00,000.00,025.7,025.0,000.0,034.1,027.5,12.0,0005.1,0026.29,0008.77,0007.10
2024-02-02 23:36:00,SystemResetWarning,0813.9,5.00,000.00,025.7,025.0,000.0,034.1,027.5,12.0,0005.0,0027.55,0008.73,0007.09
2024-02-02 23:37:00,SystemResetWarning,0813.9,4.99,000.00,025.7,025.0,000.0,034.1,027.5,12.0,0004.9,0028.29,0008.65,0007.08
2024-02-02 23:38:00,SystemResetWarning,0813.9,4.99,000.00,025.7,025.0,000.0,034.1,027.5,12.0,0004.2,0028.74,0008.60,0007.07
2024-02-02 23:39:00,SystemResetWarning,0813.9,5.00,000.00,025.7,025.0,000.0,034.1,027.5,12.0,0003.7,0028.46,0008.63,0007.09
2024-02-02 23:40:00,SystemResetWarning,0813.9,5.00,000.00,025.7,025.0,000.0,034.1,027.5,12.0,0004.2,0027.70,0008.62,0007.07
2024-02-02 23:41:00,SystemResetWarning,0813.9,5.00,000.00,025.7,025.0,000.0,034.1,027.5,11.9,0004.1,0027.35,0008.60,0007.04
2024-02-02 23:42:00,SystemResetWarning,0813.9,5.00,000.00,025.7,025.0,000.0,034.1,027.5,11.9,0004.0,0026.90,0008.58,0007.03
2024-02-02 23:43:00,SystemResetWarning,0813.9,5.00,000.00,025.7,025.0,000.0,034.1,027.5,11.8,0003.5,0025.89,0008.61,0007.03
2024-02-02 23:44:00,SystemResetWarning,0813.9,5.01,000.00,025.7,025.0,000.0,034.1,027.6,11.8,0003.0,0025.52,0008.54,0007.02
2024-02-02 23:45:00,SystemResetWarning,0813.9,5.00,000.00,025.7,025.0,000.0,034.1,027.5,11.8,0001.9,0026.90,0008.45,0007.02
2024-02-02 23:46:00,SystemResetWarning,0813.9,5.00,000.00,025.7,025.0,000.0,034.1,027.5,11.8,0001.8,0027.13,0008.39,0007.01
2024-02-02 23:47:00,SystemResetWarning,0813.9,5.00,000.00,025.7,025.0,000.0,034.1,027.5,11.8,0001.9,0026.10,0008.36,0007.00
2024-02-02 23:48:00,SystemResetWarning,0813.9,4.99,000.00,025.7,025.0,000.0,034.1,027.5,11.9,0001.8,0024.89,0008.37,0006.99
2024-02-02 23:49:00,SystemResetWarning,0813.9,5.00,000.00,025.7,025.0,000.0,034.1,027.5,11.9,0002.5,0023.43,0008.32,0006.97
2024-02-02 23:50:00,SystemResetWarning,0813.9,5.00,000.00,025.7,025.0,000.0,034.1,027.6,11.9,0003.0,0022.48,0008.24,0006.94
2024-02-02 23:51:00,SystemResetWarning,0813.8,5.00,000.00,025.7,025.0,000.0,034.1,027.5,11.9,0003.0,0022.52,0008.13,0006.91
2024-02-02 23:52:00,SystemResetWarning,0813.8,5.01,000.00,025.7,025.0,000.0,034.1,027.5,11.9,0003.0,0022.48,0008.06,0006.91
2024-02-02 23:53:00,SystemResetWarning,0813.8,5.01,000.00,025.7,025.0,000.0,034.1,027.5,11.9,0003.0,0021.24,0008.02,0006.91
2024-02-02 23:54:00,SystemResetWarning,0813.7,4.99,000.00,025.7,025.0,000.0,034.1,027.5,11.9,0003.2,0022.15,0007.96,0006.89
2024-02-02 23:55:00,SystemResetWarning,0813.8,4.99,000.00,025.7,025.0,000.0,034.1,027.5,11.9,0003.9,0023.15,0007.95,0006.88
2024-02-02 23:56:00,SystemResetWarning,0813.8,5.00,000.00,025.7,025.0,000.0,034.1,027.6,11.9,0004.5,0022.10,0007.94,0006.88
2024-02-02 23:57:00,SystemResetWarning,0813.8,5.00,000.00,025.7,025.0,000.0,034.1,027.5,11.9,0004.5,0022.76,0007.97,0006.88
2024-02-02 23:58:00,SystemResetWarning,0813.8,5.01,000.00,025.7,025.0,000.0,034.1,027.6,11.9,0004.0,0023.02,0008.00,0006.91
2024-02-02 23:59:00,SystemResetWarning,0813.8,5.00,000.00,025.7,025.0,000.0,034.1,027.6,11.9,0004.2,0021.95,0008.01,0006.92
